TimeEDT,TemperatureF,Dew PointF,Humidity,Sea Level PressureIn,VisibilityMPH,Wind Direction,Wind SpeedMPH,Gust SpeedMPH,PrecipitationIn,Events,Conditions,WindDirDegrees,DateUTC
12:58 AM,78.6,72.5,81,29.99,10.0,East,2.3,-,N/A,,Clear,100,2013-10-06 04:58:00
1:58 AM,77.7,72.9,85,29.97,10.0,East,2.3,-,N/A,,Clear,100,2013-10-06 05:58:00
2:58 AM,75.7,72.5,90,29.95,10.0,West,2.3,-,N/A,,Partly Cloudy,260,2013-10-06 06:58:00
3:58 AM,76.3,72.1,87,29.92,10.0,North,2.3,-,N/A,,Clear,10,2013-10-06 07:58:00
4:58 AM,75.6,72.0,89,29.92,10.0,NNW,4.6,-,N/A,,Mostly Cloudy,340,2013-10-06 08:58:00
5:58 AM,73.9,71.6,92,29.92,10.0,NNW,3.5,-,N/A,,Clear,330,2013-10-06 09:58:00
6:58 AM,73.0,70.7,92,29.94,10.0,North,2.3,-,N/A,,Clear,360,2013-10-06 10:58:00
7:58 AM,73.8,71.4,92,29.95,10.0,Calm,Calm,-,N/A,,Clear,0,2013-10-06 11:58:00
8:58 AM,79.3,72.7,80,29.97,10.0,Calm,Calm,-,N/A,,Clear,0,2013-10-06 12:58:00
9:58 AM,83.5,72.0,68,29.98,10.0,SE,3.5,-,N/A,,Partly Cloudy,130,2013-10-06 13:58:00
10:58 AM,84.7,71.6,65,29.98,10.0,SE,4.6,-,N/A,,Partly Cloudy,130,2013-10-06 14:58:00
11:58 AM,86.5,71.6,61,29.97,10.0,ESE,8.1,-,N/A,,Partly Cloudy,110,2013-10-06 15:58:00
12:58 PM,87.4,71.1,58,29.95,10.0,SE,9.2,-,N/A,,Partly Cloudy,130,2013-10-06 16:58:00
1:58 PM,86.2,71.4,61,29.93,10.0,ENE,10.4,-,N/A,,Scattered Clouds,60,2013-10-06 17:58:00
2:58 PM,86.0,72.3,64,29.91,10.0,East,9.2,-,N/A,,Clear,80,2013-10-06 18:58:00
3:58 PM,87.8,71.6,58,29.90,10.0,ESE,8.1,-,N/A,,Clear,120,2013-10-06 19:58:00
4:58 PM,87.1,71.2,59,29.89,10.0,ESE,8.1,-,N/A,,Partly Cloudy,120,2013-10-06 20:58:00
5:25 PM,84.2,71.6,66,29.88,10.0,ESE,6.9,-,N/A,,Light Drizzle,120,2013-10-06 21:25:00
5:34 PM,84.2,71.6,66,29.88,10.0,SE,5.8,-,N/A,,Clear,130,2013-10-06 21:34:00
5:58 PM,82.9,70.9,67,29.90,10.0,SE,4.6,-,0.00,,Scattered Clouds,130,2013-10-06 21:58:00
6:58 PM,81.7,72.0,72,29.91,10.0,SE,3.5,-,N/A,,Partly Cloudy,140,2013-10-06 22:58:00
7:58 PM,80.1,72.0,76,29.92,10.0,South,5.8,-,N/A,,Scattered Clouds,170,2013-10-06 23:58:00
8:58 PM,77.2,72.0,84,29.94,10.0,WSW,5.8,-,N/A,,Mostly Cloudy,250,2013-10-07 00:58:00
9:11 PM,77.0,69.8,78,29.93,10.0,WSW,10.4,-,N/A,Rain,Light Rain,250,2013-10-07 01:11:00
9:58 PM,75.7,71.2,86,29.94,10.0,WNW,4.6,-,0.00,,Light Drizzle,290,2013-10-07 01:58:00
10:18 PM,75.2,71.6,89,29.94,10.0,West,3.5,-,N/A,,Scattered Clouds,270,2013-10-07 02:18:00
10:58 PM,76.6,71.6,84,29.95,10.0,NE,1.2,-,0.00,,Overcast,40,2013-10-07 02:58:00
11:58 PM,75.9,71.8,87,29.93,10.0,Calm,Calm,-,N/A,,Scattered Clouds,0,2013-10-07 03:58:00